Data supplied by UK-AIR on 18/3/2021
All Data GMT hour ending 
Status: R =Ratified P=Provisional,P*=As supplied
,,Manchester Sharston,,,,,,,,,,,,,,,,,,,,,,,
Date,time,"Nitric oxide",status,unit,"Nitrogen dioxide",status,unit,"Nitrogen oxides as nitrogen dioxide",status,unit,"Ozone",status,unit
 
01-01-2020,01:00,0.17214,R,ugm-3,11.34404,R,ugm-3,11.60798,R,ugm-3,45.76805,R,ugm-3
01-01-2020,02:00,0.21517,R,ugm-3,10.54422,R,ugm-3,10.87414,R,ugm-3,48.02985,R,ugm-3
01-01-2020,03:00,0.41958,R,ugm-3,8.91322,R,ugm-3,9.55657,R,ugm-3,49.64304,R,ugm-3
01-01-2020,04:00,0.64551,R,ugm-3,10.08451,R,ugm-3,11.07428,R,ugm-3,47.24820,R,ugm-3
01-01-2020,05:00,0.74234,R,ugm-3,10.92005,R,ugm-3,12.05829,R,ugm-3,44.85336,R,ugm-3
01-01-2020,06:00,1.29102,R,ugm-3,13.63119,R,ugm-3,15.61073,R,ugm-3,39.21551,R,ugm-3
01-01-2020,07:00,1.54923,R,ugm-3,19.98993,R,ugm-3,22.36537,R,ugm-3,30.88346,R,ugm-3
01-01-2020,08:00,2.38839,R,ugm-3,20.80467,R,ugm-3,24.46682,R,ugm-3,31.43228,R,ugm-3
01-01-2020,09:00,2.19474,R,ugm-3,19.15026,R,ugm-3,22.51548,R,ugm-3,30.53421,R,ugm-3
01-01-2020,10:00,2.19474,R,ugm-3,17.29899,R,ugm-3,20.66421,R,ugm-3,29.93550,R,ugm-3
01-01-2020,11:00,3.45348,R,ugm-3,16.06942,R,ugm-3,21.36469,R,ugm-3,31.28260,R,ugm-3
01-01-2020,12:00,6.03552,R,ugm-3,18.46472,R,ugm-3,27.71905,R,ugm-3,29.43658,R,ugm-3
01-01-2020,13:00,3.80851,R,ugm-3,15.87529,R,ugm-3,21.71493,R,ugm-3,33.22841,R,ugm-3
01-01-2020,14:00,3.03390,R,ugm-3,14.21105,R,ugm-3,18.86297,R,ugm-3,36.17206,R,ugm-3
01-01-2020,15:00,3.03390,R,ugm-3,16.26246,R,ugm-3,20.91438,R,ugm-3,33.12862,R,ugm-3
01-01-2020,16:00,4.58312,R,ugm-3,21.39218,R,ugm-3,28.41954,R,ugm-3,28.38883,R,ugm-3
01-01-2020,17:00,5.80959,R,ugm-3,27.41705,R,ugm-3,36.32497,R,ugm-3,16.66410,R,ugm-3
01-01-2020,18:00,7.10061,R,ugm-3,29.54033,R,ugm-3,40.42779,R,ugm-3,15.66625,R,ugm-3
01-01-2020,19:00,6.58421,R,ugm-3,28.58094,R,ugm-3,38.67659,R,ugm-3,16.11528,R,ugm-3
01-01-2020,20:00,4.32492,R,ugm-3,25.74080,R,ugm-3,32.37225,R,ugm-3,19.00904,R,ugm-3
01-01-2020,21:00,3.22755,R,ugm-3,21.56938,R,ugm-3,26.51823,R,ugm-3,23.10023,R,ugm-3
01-01-2020,22:00,1.90426,R,ugm-3,16.89380,R,ugm-3,19.81362,R,ugm-3,27.84002,R,ugm-3
01-01-2020,23:00,1.19420,R,ugm-3,10.77760,R,ugm-3,12.60867,R,ugm-3,35.42368,R,ugm-3
01-01-2020,24:00,1.16192,R,ugm-3,10.07657,R,ugm-3,11.85815,R,ugm-3,35.47357,R,ugm-3
02-01-2020,01:00,0.94722,R,ugm-3,8.35446,R,ugm-3,9.80685,R,ugm-3,36.25522,R,ugm-3
02-01-2020,02:00,1.29166,R,ugm-3,7.82633,R,ugm-3,9.80685,R,ugm-3,38.45049,R,ugm-3
02-01-2020,03:00,1.22708,R,ugm-3,7.72521,R,ugm-3,9.60671,R,ugm-3,42.45852,R,ugm-3
02-01-2020,04:00,0.96875,R,ugm-3,7.32076,R,ugm-3,8.80615,R,ugm-3,41.71013,R,ugm-3
02-01-2020,05:00,0.96875,R,ugm-3,7.82111,R,ugm-3,9.30650,R,ugm-3,42.45852,R,ugm-3
02-01-2020,06:00,0.90416,R,ugm-3,8.12027,R,ugm-3,9.50664,R,ugm-3,41.56045,R,ugm-3
02-01-2020,07:00,1.45312,R,ugm-3,12.13194,R,ugm-3,14.36002,R,ugm-3,38.11787,R,ugm-3
02-01-2020,08:00,1.84062,R,ugm-3,13.13890,R,ugm-3,15.96114,R,ugm-3,37.81852,R,ugm-3
02-01-2020,09:00,2.00208,R,ugm-3,13.29162,R,ugm-3,16.36142,R,ugm-3,41.76002,R,ugm-3
02-01-2020,10:00,1.74374,R,ugm-3,11.53622,R,ugm-3,14.20992,R,ugm-3,46.05078,R,ugm-3
02-01-2020,11:00,1.96978,R,ugm-3,11.58991,R,ugm-3,14.61020,R,ugm-3,49.69293,R,ugm-3
02-01-2020,12:00,1.90520,R,ugm-3,11.98914,R,ugm-3,14.91041,R,ugm-3,50.19186,R,ugm-3
02-01-2020,13:00,2.51874,R,ugm-3,13.50011,R,ugm-3,17.36212,R,ugm-3,50.39143,R,ugm-3
02-01-2020,14:00,2.19582,R,ugm-3,12.34408,R,ugm-3,15.71097,R,ugm-3,54.93164,R,ugm-3
02-01-2020,15:00,1.84062,R,ugm-3,13.78936,R,ugm-3,16.61159,R,ugm-3,55.08132,R,ugm-3
02-01-2020,16:00,2.09895,R,ugm-3,13.99367,R,ugm-3,17.21201,R,ugm-3,57.32648,R,ugm-3
02-01-2020,17:00,1.58229,R,ugm-3,12.13403,R,ugm-3,14.56016,R,ugm-3,63.16391,R,ugm-3
02-01-2020,18:00,1.51770,R,ugm-3,13.68407,R,ugm-3,16.01118,R,ugm-3,59.82111,R,ugm-3
02-01-2020,19:00,1.03333,R,ugm-3,9.62341,R,ugm-3,11.20782,R,ugm-3,59.12261,R,ugm-3
02-01-2020,20:00,1.09791,R,ugm-3,9.27421,R,ugm-3,10.95765,R,ugm-3,55.58025,R,ugm-3
02-01-2020,21:00,0.83958,R,ugm-3,8.41944,R,ugm-3,9.70678,R,ugm-3,54.83186,R,ugm-3
02-01-2020,22:00,1.06562,R,ugm-3,6.77194,R,ugm-3,8.40587,R,ugm-3,56.37853,R,ugm-3
02-01-2020,23:00,0.96875,R,ugm-3,7.12062,R,ugm-3,8.60601,R,ugm-3,55.38068,R,ugm-3
02-01-2020,24:00,0.64583,R,ugm-3,6.41491,R,ugm-3,7.40517,R,ugm-3,53.58455,R,ugm-3
03-01-2020,01:00,0.21538,R,ugm-3,5.54058,R,ugm-3,5.87083,R,ugm-3,56.61136,R,ugm-3
03-01-2020,02:00,0.25846,R,ugm-3,5.74138,R,ugm-3,6.13768,R,ugm-3,52.22082,R,ugm-3
03-01-2020,03:00,0.51692,R,ugm-3,5.11158,R,ugm-3,5.90418,R,ugm-3,52.08777,R,ugm-3
03-01-2020,04:00,0.45231,R,ugm-3,5.56091,R,ugm-3,6.25443,R,ugm-3,59.52175,R,ugm-3
03-01-2020,05:00,0.19385,R,ugm-3,4.15593,R,ugm-3,4.45316,R,ugm-3,72.89294,R,ugm-3
03-01-2020,06:00,0.22615,R,ugm-3,5.90767,R,ugm-3,6.25443,R,ugm-3,71.89509,R,ugm-3
03-01-2020,07:00,0.84000,R,ugm-3,11.27092,R,ugm-3,12.55890,R,ugm-3,63.96219,R,ugm-3
03-01-2020,08:00,2.26153,R,ugm-3,20.84961,R,ugm-3,24.31723,R,ugm-3,54.78197,R,ugm-3
03-01-2020,09:00,4.29690,R,ugm-3,34.34051,R,ugm-3,40.92900,R,ugm-3,38.21766,R,ugm-3
03-01-2020,10:00,7.20458,R,ugm-3,38.58831,R,ugm-3,49.63517,R,ugm-3,38.96604,R,ugm-3
03-01-2020,11:00,5.42766,R,ugm-3,27.85333,R,ugm-3,36.17563,R,ugm-3,53.13551,R,ugm-3
03-01-2020,12:00,3.90921,R,ugm-3,18.47330,R,ugm-3,24.46734,R,ugm-3,64.76047,R,ugm-3
03-01-2020,13:00,3.29537,R,ugm-3,15.06143,R,ugm-3,20.11425,R,ugm-3,68.95144,R,ugm-3
03-01-2020,14:00,3.61844,R,ugm-3,15.91701,R,ugm-3,21.46521,R,ugm-3,67.75402,R,ugm-3
03-01-2020,15:00,2.55229,R,ugm-3,12.89845,R,ugm-3,16.81191,R,ugm-3,70.44821,R,ugm-3
03-01-2020,16:00,2.45537,R,ugm-3,16.44947,R,ugm-3,20.21432,R,ugm-3,64.46111,R,ugm-3
03-01-2020,17:00,5.03997,R,ugm-3,26.04608,R,ugm-3,33.77393,R,ugm-3,55.92949,R,ugm-3
03-01-2020,18:00,4.26459,R,ugm-3,25.33363,R,ugm-3,31.87258,R,ugm-3,56.07917,R,ugm-3
03-01-2020,19:00,3.71537,R,ugm-3,28.77762,R,ugm-3,34.47443,R,ugm-3,50.39143,R,ugm-3
03-01-2020,20:00,9.01380,R,ugm-3,47.37240,R,ugm-3,61.19336,R,ugm-3,31.48217,R,ugm-3
03-01-2020,21:00,9.11072,R,ugm-3,46.32314,R,ugm-3,60.29272,R,ugm-3,28.43873,R,ugm-3
03-01-2020,22:00,18.02760,R,ugm-3,37.85448,R,ugm-3,65.49641,R,ugm-3,32.38023,R,ugm-3
03-01-2020,23:00,3.65075,R,ugm-3,20.12049,R,ugm-3,25.71822,R,ugm-3,46.89895,R,ugm-3
03-01-2020,24:00,1.61538,R,ugm-3,14.13490,R,ugm-3,16.61177,R,ugm-3,49.44347,R,ugm-3
04-01-2020,01:00,1.63773,R,ugm-3,13.43366,R,ugm-3,15.94480,R,ugm-3,51.08992,R,ugm-3
04-01-2020,02:00,0.68957,R,ugm-3,7.68229,R,ugm-3,8.73962,R,ugm-3,51.88820,R,ugm-3
04-01-2020,03:00,0.38788,R,ugm-3,7.21087,R,ugm-3,7.80561,R,ugm-3,55.13121,R,ugm-3
04-01-2020,04:00,0.67879,R,ugm-3,11.06791,R,ugm-3,12.10871,R,ugm-3,61.16821,R,ugm-3
04-01-2020,05:00,0.17239,R,ugm-3,8.00829,R,ugm-3,8.27262,R,ugm-3,67.80391,R,ugm-3
04-01-2020,06:00,0.38788,R,ugm-3,13.41533,R,ugm-3,14.01008,R,ugm-3,63.31358,R,ugm-3
04-01-2020,07:00,0.58182,R,ugm-3,18.52185,R,ugm-3,19.41396,R,ugm-3,59.12261,R,ugm-3
04-01-2020,08:00,1.09900,R,ugm-3,22.43224,R,ugm-3,24.11734,R,ugm-3,55.97939,R,ugm-3
04-01-2020,09:00,2.13335,R,ugm-3,26.15006,R,ugm-3,29.42116,R,ugm-3,52.08777,R,ugm-3
04-01-2020,10:00,2.19800,R,ugm-3,20.44691,R,ugm-3,23.81713,R,ugm-3,61.21810,R,ugm-3
04-01-2020,11:00,1.97173,R,ugm-3,11.83740,R,ugm-3,14.86069,R,ugm-3,67.55445,R,ugm-3
04-01-2020,12:00,2.84447,R,ugm-3,12.40060,R,ugm-3,16.76206,R,ugm-3,69.10111,R,ugm-3
04-01-2020,13:00,2.19800,R,ugm-3,10.23957,R,ugm-3,13.60979,R,ugm-3,71.39617,R,ugm-3
04-01-2020,14:00,2.35962,R,ugm-3,13.34417,R,ugm-3,16.96220,R,ugm-3,67.95359,R,ugm-3
04-01-2020,15:00,1.97173,R,ugm-3,13.73877,R,ugm-3,16.76206,R,ugm-3,66.65638,R,ugm-3
04-01-2020,16:00,3.65256,R,ugm-3,21.26881,R,ugm-3,26.86932,R,ugm-3,58.27444,R,ugm-3
04-01-2020,17:00,6.17379,R,ugm-3,32.96417,R,ugm-3,42.43052,R,ugm-3,45.65164,R,ugm-3
04-01-2020,18:00,22.94970,R,ugm-3,63.83216,R,ugm-3,99.02121,R,ugm-3,17.36259,R,ugm-3
04-01-2020,19:00,7.43441,R,ugm-3,44.79114,R,ugm-3,56.19041,R,ugm-3,33.47787,R,ugm-3
04-01-2020,20:00,3.84650,R,ugm-3,27.82637,R,ugm-3,33.72425,R,ugm-3,41.85981,R,ugm-3
04-01-2020,21:00,2.94144,R,ugm-3,19.50713,R,ugm-3,24.01727,R,ugm-3,45.15271,R,ugm-3
04-01-2020,22:00,2.68285,R,ugm-3,19.25316,R,ugm-3,23.36681,R,ugm-3,41.95959,R,ugm-3
04-01-2020,23:00,1.38991,R,ugm-3,13.37999,R,ugm-3,15.51116,R,ugm-3,50.24175,R,ugm-3
04-01-2020,24:00,1.71315,R,ugm-3,12.48408,R,ugm-3,15.11087,R,ugm-3,50.54110,R,ugm-3
05-01-2020,01:00,1.50918,R,ugm-3,12.29662,R,ugm-3,14.61066,R,ugm-3,49.89250,R,ugm-3
05-01-2020,02:00,0.43119,R,ugm-3,9.01257,R,ugm-3,9.67373,R,ugm-3,51.68863,R,ugm-3
05-01-2020,03:00,0.32340,R,ugm-3,7.96031,R,ugm-3,8.45617,R,ugm-3,51.13981,R,ugm-3
05-01-2020,04:00,0.42041,R,ugm-3,6.81082,R,ugm-3,7.45544,R,ugm-3,54.98154,R,ugm-3
05-01-2020,05:00,0.51743,R,ugm-3,8.86366,R,ugm-3,9.65705,R,ugm-3,55.48046,R,ugm-3
05-01-2020,06:00,0.54977,R,ugm-3,8.11357,R,ugm-3,8.95654,R,ugm-3,57.07702,R,ugm-3
05-01-2020,07:00,0.74381,R,ugm-3,8.46652,R,ugm-3,9.60701,R,ugm-3,56.32863,R,ugm-3
05-01-2020,08:00,0.71147,R,ugm-3,7.26519,R,ugm-3,8.35610,R,ugm-3,59.32218,R,ugm-3
05-01-2020,09:00,0.71147,R,ugm-3,6.41457,R,ugm-3,7.50548,R,ugm-3,62.21595,R,ugm-3
05-01-2020,10:00,1.16422,R,ugm-3,8.07208,R,ugm-3,9.85719,R,ugm-3,60.76907,R,ugm-3
05-01-2020,11:00,2.58716,R,ugm-3,12.19487,R,ugm-3,16.16179,R,ugm-3,56.72777,R,ugm-3
05-01-2020,12:00,2.16675,R,ugm-3,10.18756,R,ugm-3,13.50986,R,ugm-3,61.01853,R,ugm-3
05-01-2020,13:00,2.65184,R,ugm-3,11.29511,R,ugm-3,15.36121,R,ugm-3,60.12046,R,ugm-3
05-01-2020,14:00,3.03992,R,ugm-3,12.75157,R,ugm-3,17.41271,R,ugm-3,59.67143,R,ugm-3
05-01-2020,15:00,3.00758,R,ugm-3,13.90196,R,ugm-3,18.51351,R,ugm-3,56.22885,R,ugm-3
05-01-2020,16:00,2.65184,R,ugm-3,12.74617,R,ugm-3,16.81227,R,ugm-3,58.82326,R,ugm-3
05-01-2020,17:00,3.00758,R,ugm-3,19.75623,R,ugm-3,24.36778,R,ugm-3,57.22670,R,ugm-3
05-01-2020,18:00,2.10207,R,ugm-3,22.04531,R,ugm-3,25.26844,R,ugm-3,56.82756,R,ugm-3
05-01-2020,19:00,1.51996,R,ugm-3,17.68404,R,ugm-3,20.01461,R,ugm-3,55.03143,R,ugm-3
05-01-2020,20:00,1.19656,R,ugm-3,11.62512,R,ugm-3,13.45982,R,ugm-3,58.52390,R,ugm-3
05-01-2020,21:00,1.03487,R,ugm-3,8.57064,R,ugm-3,10.15741,R,ugm-3,65.15961,R,ugm-3
05-01-2020,22:00,0.80849,R,ugm-3,8.91775,R,ugm-3,10.15741,R,ugm-3,65.00993,R,ugm-3
05-01-2020,23:00,1.00253,R,ugm-3,6.71884,R,ugm-3,8.25603,R,ugm-3,68.70197,R,ugm-3
05-01-2020,24:00,0.61445,R,ugm-3,5.71271,R,ugm-3,6.65486,R,ugm-3,71.84520,R,ugm-3
06-01-2020,01:00,0.38827,R,ugm-3,4.74195,R,ugm-3,5.33729,R,ugm-3,73.57481,R,ugm-3
06-01-2020,02:00,0.38827,R,ugm-3,5.87612,R,ugm-3,6.47146,R,ugm-3,72.57696,R,ugm-3
06-01-2020,03:00,0.42062,R,ugm-3,7.96143,R,ugm-3,8.60637,R,ugm-3,71.64563,R,ugm-3
06-01-2020,04:00,0.32356,R,ugm-3,3.15659,R,ugm-3,3.65271,R,ugm-3,72.74327,R,ugm-3
06-01-2020,05:00,0.42062,R,ugm-3,3.35802,R,ugm-3,4.00296,R,ugm-3,70.54800,R,ugm-3
06-01-2020,06:00,0.29120,R,ugm-3,6.10835,R,ugm-3,6.55485,R,ugm-3,65.10971,R,ugm-3
06-01-2020,07:00,0.87360,R,ugm-3,7.36695,R,ugm-3,8.70645,R,ugm-3,62.31573,R,ugm-3
06-01-2020,08:00,1.81191,R,ugm-3,9.93119,R,ugm-3,12.70941,R,ugm-3,60.96864,R,ugm-3
06-01-2020,09:00,1.81191,R,ugm-3,13.18360,R,ugm-3,15.96182,R,ugm-3,58.72347,R,ugm-3
06-01-2020,10:00,1.81191,R,ugm-3,13.28367,R,ugm-3,16.06189,R,ugm-3,58.07487,R,ugm-3
06-01-2020,11:00,1.81191,R,ugm-3,12.38300,R,ugm-3,15.16123,R,ugm-3,61.66713,R,ugm-3
06-01-2020,12:00,1.68249,R,ugm-3,11.13037,R,ugm-3,13.71015,R,ugm-3,63.81251,R,ugm-3
06-01-2020,13:00,1.39129,R,ugm-3,11.22661,R,ugm-3,13.35989,R,ugm-3,62.41552,R,ugm-3
06-01-2020,14:00,1.71484,R,ugm-3,12.13154,R,ugm-3,14.76093,R,ugm-3,59.67143,R,ugm-3
06-01-2020,15:00,1.90898,R,ugm-3,12.03402,R,ugm-3,14.96108,R,ugm-3,57.97509,R,ugm-3
06-01-2020,16:00,6.43875,R,ugm-3,21.20040,R,ugm-3,31.07301,R,ugm-3,47.09852,R,ugm-3
06-01-2020,17:00,11.74505,R,ugm-3,38.58307,R,ugm-3,56.59190,R,ugm-3,30.38453,R,ugm-3
06-01-2020,18:00,11.00088,R,ugm-3,33.21931,R,ugm-3,50.08708,R,ugm-3,46.89895,R,ugm-3
06-01-2020,19:00,25.26966,R,ugm-3,65.28075,R,ugm-3,104.02702,R,ugm-3,19.65765,R,ugm-3
06-01-2020,20:00,13.00692,R,ugm-3,47.95661,R,ugm-3,67.90027,R,ugm-3,27.24131,R,ugm-3
06-01-2020,21:00,7.86239,R,ugm-3,36.33032,R,ugm-3,48.38582,R,ugm-3,30.58410,R,ugm-3
06-01-2020,22:00,13.07163,R,ugm-3,43.95449,R,ugm-3,63.99738,R,ugm-3,20.40603,R,ugm-3
06-01-2020,23:00,9.35075,R,ugm-3,28.59418,R,ugm-3,42.93179,R,ugm-3,33.57765,R,ugm-3
06-01-2020,24:00,2.39431,R,ugm-3,21.79764,R,ugm-3,25.46886,R,ugm-3,34.47572,R,ugm-3
07-01-2020,01:00,1.12221,R,ugm-3,16.02596,R,ugm-3,17.74666,R,ugm-3,37.05350,R,ugm-3
07-01-2020,02:00,1.03589,R,ugm-3,9.82023,R,ugm-3,11.40857,R,ugm-3,44.70368,R,ugm-3
07-01-2020,03:00,0.71217,R,ugm-3,9.41591,R,ugm-3,10.50789,R,ugm-3,46.44992,R,ugm-3
07-01-2020,04:00,0.73375,R,ugm-3,7.68154,R,ugm-3,8.80661,R,ugm-3,48.79487,R,ugm-3
07-01-2020,05:00,0.42083,R,ugm-3,8.01124,R,ugm-3,8.65650,R,ugm-3,51.78842,R,ugm-3
07-01-2020,06:00,0.87403,R,ugm-3,6.71589,R,ugm-3,8.05605,R,ugm-3,57.22670,R,ugm-3
07-01-2020,07:00,1.23012,R,ugm-3,9.12211,R,ugm-3,11.00827,R,ugm-3,56.97724,R,ugm-3
07-01-2020,08:00,2.16889,R,ugm-3,13.08674,R,ugm-3,16.41233,R,ugm-3,51.58885,R,ugm-3
07-01-2020,09:00,3.81984,R,ugm-3,19.86231,R,ugm-3,25.71931,R,ugm-3,47.54755,R,ugm-3
07-01-2020,10:00,,,,,,,,,,,,
07-01-2020,11:00,,,,,,,,,,,,
07-01-2020,12:00,,,,,,,,,,,,
07-01-2020,13:00,1.64016,R,ugm-3,11.56237,R,ugm-3,14.07724,R,ugm-3,53.08562,R,ugm-3
07-01-2020,14:00,2.00703,R,ugm-3,15.18631,R,ugm-3,18.26372,R,ugm-3,48.69508,R,ugm-3
07-01-2020,15:00,2.03941,R,ugm-3,13.88573,R,ugm-3,17.01278,R,ugm-3,52.03788,R,ugm-3
07-01-2020,16:00,1.68332,R,ugm-3,12.88056,R,ugm-3,15.46161,R,ugm-3,51.93809,R,ugm-3
07-01-2020,17:00,1.71569,R,ugm-3,14.73235,R,ugm-3,17.36304,R,ugm-3,48.24605,R,ugm-3
07-01-2020,18:00,2.81632,R,ugm-3,21.15083,R,ugm-3,25.46913,R,ugm-3,46.74927,R,ugm-3
07-01-2020,19:00,2.23364,R,ugm-3,15.28919,R,ugm-3,18.71405,R,ugm-3,53.48476,R,ugm-3
07-01-2020,20:00,1.81281,R,ugm-3,15.28397,R,ugm-3,18.06356,R,ugm-3,56.57810,R,ugm-3
07-01-2020,21:00,1.03589,R,ugm-3,6.41767,R,ugm-3,8.00601,R,ugm-3,59.92089,R,ugm-3
07-01-2020,22:00,1.84518,R,ugm-3,9.63013,R,ugm-3,12.45936,R,ugm-3,54.63229,R,ugm-3
07-01-2020,23:00,1.10063,R,ugm-3,6.26836,R,ugm-3,7.95598,R,ugm-3,55.08132,R,ugm-3
07-01-2020,24:00,0.55032,R,ugm-3,4.20999,R,ugm-3,5.05380,R,ugm-3,57.17681,R,ugm-3
08-01-2020,01:00,0.60286,R,ugm-3,4.07017,R,ugm-3,4.99454,R,ugm-3,58.74010,R,ugm-3
08-01-2020,02:00,0.38755,R,ugm-3,9.59462,R,ugm-3,10.18886,R,ugm-3,56.87745,R,ugm-3
08-01-2020,03:00,0.61362,R,ugm-3,10.09706,R,ugm-3,11.03793,R,ugm-3,58.07487,R,ugm-3
08-01-2020,04:00,0.38755,R,ugm-3,8.59572,R,ugm-3,9.18996,R,ugm-3,59.22240,R,ugm-3
08-01-2020,05:00,0.29066,R,ugm-3,8.74428,R,ugm-3,9.18996,R,ugm-3,59.37208,R,ugm-3
08-01-2020,06:00,0.45214,R,ugm-3,6.24913,R,ugm-3,6.94241,R,ugm-3,66.10756,R,ugm-3
08-01-2020,07:00,0.71051,R,ugm-3,13.04511,R,ugm-3,14.13455,R,ugm-3,60.96864,R,ugm-3
08-01-2020,08:00,3.81093,R,ugm-3,21.32696,R,ugm-3,27.17030,R,ugm-3,59.42197,R,ugm-3
08-01-2020,09:00,15.01763,R,ugm-3,51.29204,R,ugm-3,74.31876,R,ugm-3,37.76862,R,ugm-3
08-01-2020,10:00,10.78686,R,ugm-3,51.98547,R,ugm-3,68.52509,R,ugm-3,35.12432,R,ugm-3
08-01-2020,11:00,8.17088,R,ugm-3,42.06181,R,ugm-3,54.59032,R,ugm-3,46.30024,R,ugm-3
08-01-2020,12:00,7.33119,R,ugm-3,38.20495,R,ugm-3,49.44595,R,ugm-3,49.19401,R,ugm-3
08-01-2020,13:00,10.94834,R,ugm-3,43.34704,R,ugm-3,60.13426,R,ugm-3,44.05508,R,ugm-3
08-01-2020,14:00,19.15152,R,ugm-3,55.24226,R,ugm-3,84.60751,R,ugm-3,30.93335,R,ugm-3
08-01-2020,15:00,8.23548,R,ugm-3,35.41992,R,ugm-3,48.04748,R,ugm-3,39.76432,R,ugm-3
08-01-2020,16:00,8.33236,R,ugm-3,37.06940,R,ugm-3,49.84551,R,ugm-3,31.68174,R,ugm-3
08-01-2020,17:00,11.43278,R,ugm-3,50.49562,R,ugm-3,68.02564,R,ugm-3,17.96130,R,ugm-3
08-01-2020,18:00,14.21023,R,ugm-3,53.57889,R,ugm-3,75.36761,R,ugm-3,11.47528,R,ugm-3
08-01-2020,19:00,12.82151,R,ugm-3,49.46507,R,ugm-3,69.12443,R,ugm-3,16.86367,R,ugm-3
08-01-2020,20:00,5.36113,R,ugm-3,40.32664,R,ugm-3,48.54693,R,ugm-3,22.60130,R,ugm-3
08-01-2020,21:00,3.48797,R,ugm-3,40.50174,R,ugm-3,45.84988,R,ugm-3,20.10668,R,ugm-3
08-01-2020,22:00,1.97006,R,ugm-3,26.04751,R,ugm-3,29.06822,R,ugm-3,35.37378,R,ugm-3
08-01-2020,23:00,1.67939,R,ugm-3,19.75056,R,ugm-3,22.32559,R,ugm-3,47.19831,R,ugm-3
08-01-2020,24:00,0.45214,R,ugm-3,9.34575,R,ugm-3,10.03903,R,ugm-3,65.00993,R,ugm-3
09-01-2020,01:00,0.21480,R,ugm-3,6.51715,R,ugm-3,6.84651,R,ugm-3,69.58341,R,ugm-3
09-01-2020,02:00,0.04296,R,ugm-3,5.58416,R,ugm-3,5.65003,R,ugm-3,70.24864,R,ugm-3
09-01-2020,03:00,0.25776,R,ugm-3,6.23525,R,ugm-3,6.63048,R,ugm-3,60.12046,R,ugm-3
09-01-2020,04:00,0.38665,R,ugm-3,7.58308,R,ugm-3,8.17593,R,ugm-3,48.44562,R,ugm-3
09-01-2020,05:00,0.51553,R,ugm-3,5.64060,R,ugm-3,6.43107,R,ugm-3,48.89465,R,ugm-3
09-01-2020,06:00,0.51553,R,ugm-3,6.53796,R,ugm-3,7.32843,R,ugm-3,53.18541,R,ugm-3
09-01-2020,07:00,0.96661,R,ugm-3,6.84337,R,ugm-3,8.32549,R,ugm-3,63.31358,R,ugm-3
09-01-2020,08:00,2.22321,R,ugm-3,10.64973,R,ugm-3,14.05861,R,ugm-3,61.96649,R,ugm-3
09-01-2020,09:00,4.38198,R,ugm-3,16.51266,R,ugm-3,23.23160,R,ugm-3,55.58025,R,ugm-3
09-01-2020,10:00,7.73291,R,ugm-3,32.11359,R,ugm-3,43.97055,R,ugm-3,38.91615,R,ugm-3
09-01-2020,11:00,8.37732,R,ugm-3,28.23402,R,ugm-3,41.07906,R,ugm-3,46.10067,R,ugm-3
09-01-2020,12:00,4.44642,R,ugm-3,19.75402,R,ugm-3,26.57177,R,ugm-3,55.08132,R,ugm-3
09-01-2020,13:00,5.05861,R,ugm-3,21.55727,R,ugm-3,29.31370,R,ugm-3,50.69078,R,ugm-3
09-01-2020,14:00,5.02639,R,ugm-3,24.49816,R,ugm-3,32.20518,R,ugm-3,47.94669,R,ugm-3
09-01-2020,15:00,3.51203,R,ugm-3,21.83483,R,ugm-3,27.21986,R,ugm-3,51.73852,R,ugm-3
09-01-2020,16:00,4.09200,R,ugm-3,25.98073,R,ugm-3,32.25504,R,ugm-3,45.45207,R,ugm-3
09-01-2020,17:00,7.31404,R,ugm-3,33.50363,R,ugm-3,44.71835,R,ugm-3,39.51486,R,ugm-3
09-01-2020,18:00,10.31055,R,ugm-3,44.16415,R,ugm-3,59.97343,R,ugm-3,26.69249,R,ugm-3
09-01-2020,19:00,5.86412,R,ugm-3,42.60656,R,ugm-3,51.59809,R,ugm-3,25.79442,R,ugm-3
09-01-2020,20:00,5.89634,R,ugm-3,54.62164,R,ugm-3,63.66257,R,ugm-3,15.91571,R,ugm-3
09-01-2020,21:00,4.67197,R,ugm-3,58.14415,R,ugm-3,65.30773,R,ugm-3,8.88087,R,ugm-3
09-01-2020,22:00,2.64208,R,ugm-3,40.61736,R,ugm-3,44.66849,R,ugm-3,28.03959,R,ugm-3
09-01-2020,23:00,0.99883,R,ugm-3,24.44201,R,ugm-3,25.97353,R,ugm-3,43.40648,R,ugm-3
09-01-2020,24:00,0.61219,R,ugm-3,17.55687,R,ugm-3,18.49555,R,ugm-3,53.83401,R,ugm-3
10-01-2020,01:00,0.17144,R,ugm-3,8.69412,R,ugm-3,8.95699,R,ugm-3,68.91817,R,ugm-3
10-01-2020,02:00,0.34288,R,ugm-3,5.24654,R,ugm-3,5.77228,R,ugm-3,73.10914,R,ugm-3
10-01-2020,03:00,0.96435,R,ugm-3,11.60851,R,ugm-3,13.08716,R,ugm-3,55.53035,R,ugm-3
10-01-2020,04:00,1.92870,R,ugm-3,18.98733,R,ugm-3,21.94462,R,ugm-3,50.59100,R,ugm-3
10-01-2020,05:00,0.35360,R,ugm-3,14.43591,R,ugm-3,14.97808,R,ugm-3,51.73852,R,ugm-3
10-01-2020,06:00,0.73933,R,ugm-3,15.88465,R,ugm-3,17.01828,R,ugm-3,49.14411,R,ugm-3
10-01-2020,07:00,38.22031,R,ugm-3,53.30895,R,ugm-3,111.91261,R,ugm-3,7.13463,R,ugm-3
10-01-2020,08:00,154.39206,R,ugm-3,84.07832,R,ugm-3,320.80950,R,ugm-3,2.34495,R,ugm-3
10-01-2020,09:00,44.35999,R,ugm-3,69.91993,R,ugm-3,137.93764,R,ugm-3,6.68560,R,ugm-3
10-01-2020,10:00,25.16947,R,ugm-3,63.26822,R,ugm-3,101.86087,R,ugm-3,10.77678,R,ugm-3
10-01-2020,11:00,11.79719,R,ugm-3,50.18340,R,ugm-3,68.27216,R,ugm-3,17.41248,R,ugm-3
10-01-2020,12:00,10.25423,R,ugm-3,39.26303,R,ugm-3,54.98596,R,ugm-3,22.85077,R,ugm-3
10-01-2020,13:00,12.82582,R,ugm-3,38.50468,R,ugm-3,58.17067,R,ugm-3,27.54066,R,ugm-3
10-01-2020,14:00,13.11513,R,ugm-3,38.85727,R,ugm-3,58.96685,R,ugm-3,37.51916,R,ugm-3
10-01-2020,15:00,7.58620,R,ugm-3,27.08208,R,ugm-3,38.71410,R,ugm-3,44.65379,R,ugm-3
10-01-2020,16:00,5.62536,R,ugm-3,29.14321,R,ugm-3,37.76864,R,ugm-3,41.46067,R,ugm-3
10-01-2020,17:00,5.36820,R,ugm-3,37.94713,R,ugm-3,46.17826,R,ugm-3,38.81637,R,ugm-3
10-01-2020,18:00,4.69316,R,ugm-3,35.34962,R,ugm-3,42.54570,R,ugm-3,39.16561,R,ugm-3
10-01-2020,19:00,2.25014,R,ugm-3,20.08680,R,ugm-3,23.53698,R,ugm-3,54.23315,R,ugm-3
10-01-2020,20:00,1.18936,R,ugm-3,13.10465,R,ugm-3,14.92832,R,ugm-3,61.61724,R,ugm-3
10-01-2020,21:00,1.12507,R,ugm-3,8.97354,R,ugm-3,10.69863,R,ugm-3,66.30713,R,ugm-3
10-01-2020,22:00,0.64290,R,ugm-3,8.76740,R,ugm-3,9.75317,R,ugm-3,64.66068,R,ugm-3
10-01-2020,23:00,0.90006,R,ugm-3,9.86593,R,ugm-3,11.24600,R,ugm-3,62.81466,R,ugm-3
10-01-2020,24:00,0.54646,R,ugm-3,7.92005,R,ugm-3,8.75795,R,ugm-3,65.70842,R,ugm-3
11-01-2020,01:00,0.51311,R,ugm-3,6.23311,R,ugm-3,7.01987,R,ugm-3,66.52333,R,ugm-3
11-01-2020,02:00,0.68415,R,ugm-3,3.65298,R,ugm-3,4.70199,R,ugm-3,70.58126,R,ugm-3
11-01-2020,03:00,0.16035,R,ugm-3,2.73427,R,ugm-3,2.98013,R,ugm-3,71.44606,R,ugm-3
11-01-2020,04:00,0.54518,R,ugm-3,2.24354,R,ugm-3,3.07947,R,ugm-3,73.29208,R,ugm-3
11-01-2020,05:00,0.25656,R,ugm-3,2.68609,R,ugm-3,3.07947,R,ugm-3,73.19230,R,ugm-3
11-01-2020,06:00,0.41690,R,ugm-3,3.28460,R,ugm-3,3.92384,R,ugm-3,72.39402,R,ugm-3
11-01-2020,07:00,0.64139,R,ugm-3,3.18874,R,ugm-3,4.17219,R,ugm-3,73.64133,R,ugm-3
11-01-2020,08:00,0.54518,R,ugm-3,4.23030,R,ugm-3,5.06623,R,ugm-3,71.74542,R,ugm-3
11-01-2020,09:00,1.28278,R,ugm-3,12.03973,R,ugm-3,14.00662,R,ugm-3,68.45251,R,ugm-3
11-01-2020,10:00,1.25071,R,ugm-3,7.51937,R,ugm-3,9.43709,R,ugm-3,70.69767,R,ugm-3
11-01-2020,11:00,1.47519,R,ugm-3,7.32416,R,ugm-3,9.58609,R,ugm-3,67.95359,R,ugm-3
11-01-2020,12:00,1.63554,R,ugm-3,9.56175,R,ugm-3,12.06954,R,ugm-3,66.90584,R,ugm-3
11-01-2020,13:00,1.63554,R,ugm-3,8.41936,R,ugm-3,10.92715,R,ugm-3,67.70412,R,ugm-3
11-01-2020,14:00,2.18072,R,ugm-3,9.42118,R,ugm-3,12.76490,R,ugm-3,66.25724,R,ugm-3
11-01-2020,15:00,2.43727,R,ugm-3,19.70661,R,ugm-3,23.44371,R,ugm-3,61.51745,R,ugm-3
11-01-2020,16:00,1.37898,R,ugm-3,9.55777,R,ugm-3,11.67219,R,ugm-3,64.76047,R,ugm-3
11-01-2020,17:00,1.34691,R,ugm-3,8.26589,R,ugm-3,10.33113,R,ugm-3,65.50885,R,ugm-3
11-01-2020,18:00,1.28278,R,ugm-3,8.26489,R,ugm-3,10.23179,R,ugm-3,65.30928,R,ugm-3
11-01-2020,19:00,1.28278,R,ugm-3,7.71854,R,ugm-3,9.68543,R,ugm-3,68.70197,R,ugm-3
11-01-2020,20:00,1.92416,R,ugm-3,14.58277,R,ugm-3,17.53311,R,ugm-3,73.94069,R,ugm-3
11-01-2020,21:00,5.29145,R,ugm-3,46.91967,R,ugm-3,55.03312,R,ugm-3,44.60390,R,ugm-3
11-01-2020,22:00,1.41105,R,ugm-3,23.61456,R,ugm-3,25.77815,R,ugm-3,58.62369,R,ugm-3
11-01-2020,23:00,0.83380,R,ugm-3,18.93675,R,ugm-3,20.21523,R,ugm-3,58.67358,R,ugm-3
11-01-2020,24:00,1.37898,R,ugm-3,14.82267,R,ugm-3,16.93709,R,ugm-3,62.61509,R,ugm-3
12-01-2020,01:00,0.81051,R,ugm-3,16.34044,R,ugm-3,17.58320,R,ugm-3,53.21867,R,ugm-3
12-01-2020,02:00,1.10912,R,ugm-3,12.64357,R,ugm-3,14.34419,R,ugm-3,52.55343,R,ugm-3
12-01-2020,03:00,0.44791,R,ugm-3,8.83194,R,ugm-3,9.51873,R,ugm-3,56.37853,R,ugm-3
12-01-2020,04:00,0.60788,R,ugm-3,10.32184,R,ugm-3,11.25391,R,ugm-3,50.59100,R,ugm-3
12-01-2020,05:00,0.60788,R,ugm-3,8.09089,R,ugm-3,9.02296,R,ugm-3,55.68003,R,ugm-3
12-01-2020,06:00,0.51190,R,ugm-3,6.45329,R,ugm-3,7.23820,R,ugm-3,60.56950,R,ugm-3
12-01-2020,07:00,0.60788,R,ugm-3,7.64470,R,ugm-3,8.57677,R,ugm-3,61.46756,R,ugm-3
12-01-2020,08:00,1.43972,R,ugm-3,13.70658,R,ugm-3,15.91412,R,ugm-3,57.97509,R,ugm-3
12-01-2020,09:00,3.29537,R,ugm-3,23.15632,R,ugm-3,28.20914,R,ugm-3,56.17896,R,ugm-3
12-01-2020,10:00,1.72767,R,ugm-3,12.86845,R,ugm-3,15.51751,R,ugm-3,64.76047,R,ugm-3
12-01-2020,11:00,1.72767,R,ugm-3,12.96761,R,ugm-3,15.61666,R,ugm-3,64.96004,R,ugm-3
12-01-2020,12:00,5.43896,R,ugm-3,23.43905,R,ugm-3,31.77867,R,ugm-3,55.33078,R,ugm-3
12-01-2020,13:00,5.91886,R,ugm-3,23.05024,R,ugm-3,32.12571,R,ugm-3,56.97724,R,ugm-3
12-01-2020,14:00,5.85488,R,ugm-3,20.71909,R,ugm-3,29.69645,R,ugm-3,57.92519,R,ugm-3
12-01-2020,15:00,4.28718,R,ugm-3,19.55334,R,ugm-3,26.12692,R,ugm-3,57.37638,R,ugm-3
12-01-2020,16:00,12.22165,R,ugm-3,41.24820,R,ugm-3,59.98781,R,ugm-3,35.77292,R,ugm-3
12-01-2020,17:00,6.87868,R,ugm-3,40.31854,R,ugm-3,50.86570,R,ugm-3,32.23056,R,ugm-3
12-01-2020,18:00,6.49475,R,ugm-3,39.81653,R,ugm-3,49.77501,R,ugm-3,30.03529,R,ugm-3
12-01-2020,19:00,4.19120,R,ugm-3,24.21199,R,ugm-3,30.63840,R,ugm-3,46.35013,R,ugm-3
12-01-2020,20:00,3.55132,R,ugm-3,28.56434,R,ugm-3,34.00962,R,ugm-3,37.31959,R,ugm-3
12-01-2020,21:00,1.63169,R,ugm-3,14.80038,R,ugm-3,17.30227,R,ugm-3,47.14841,R,ugm-3